Theta_e
280 280 280 279 279 278 278 279 279 279 279 278 278 278 278 279 279 278 278 279 278 279 278 278 279 279 278 279 278 278 279 279 279 279 279 280 280 280 281 281 280 280 281 281 281 281 282 281 282 283 284 283 284 284 284 285 284 284 284 283 283 283 282 281 280 282 283 283 284 284 282 282 282 282 283 283 283 284 286 285 285 285 285 286 287
279 279 279 279 278 278 278 278 278 277 277 278 278 278 278 278 278 279 279 279 278 278 278 278 278 278 278 278 279 279 279 279 278 278 278 278 279 280 280 280 279 279 280 279 280 281 281 281 281 282 282 282 282 283 283 284 284 284 284 283 283 283 283 281 281 281 281 283 284 283 282 282 283 281 283 283 283 283 283 284 284 284 284 285 286
277 277 277 277 277 277 276 277 276 276 277 277 277 278 278 279 278 278 278 278 279 278 278 278 278 278 278 278 278 278 278 278 278 278 278 278 278 278 279 278 278 278 279 279 279 279 279 280 280 281 282 281 281 281 282 282 283 283 283 284 283 283 283 283 282 281 281 282 283 283 283 282 282 283 282 283 284 284 283 283 283 284 285 284 285
277 278 278 277 276 276 276 276 276 276 276 276 276 277 277 277 277 277 278 277 278 278 278 278 278 277 277 278 278 277 278 278 278 278 278 278 278 278 278 278 278 278 278 278 279 279 278 279 279 279 279 279 280 280 280 281 281 282 282 282 283 283 283 283 283 282 282 281 282 282 283 282 282 281 282 282 282 282 283 283 282 283 283 284 284
277 277 277 277 276 276 276 275 275 275 275 275 276 276 276 277 276 276 276 276 276 276 277 276 276 276 277 277 277 277 277 277 277 277 278 277 277 277 277 277 277 277 277 278 280 278 278 278 279 279 279 278 279 279 279 279 280 281 281 281 281 282 283 283 283 283 281 281 281 282 282 282 282 281 281 281 281 281 282 282 282 282 283 283 284
277 277 277 277 276 276 275 275 275 275 275 275 276 276 276 276 275 275 275 276 276 275 276 276 276 276 276 276 276 276 276 276 276 277 277 277 277 277 277 277 277 277 277 277 277 278 278 278 279 279 279 278 279 279 279 279 279 279 279 280 280 281 281 281 282 281 281 281 281 281 281 280 281 282 281 281 281 281 281 281 281 281 282 282 282
276 276 276 275 275 275 275 275 275 274 275 275 275 275 275 275 275 275 276 275 275 275 275 275 275 275 275 275 275 275 276 276 276 276 276 276 276 276 276 276 277 277 277 278 278 278 278 278 278 279 279 279 279 279 279 279 279 279 279 279 280 280 280 280 280 281 281 281 281 281 281 281 280 281 281 281 281 281 282 281 281 281 281 282 282
275 275 275 275 275 275 275 274 275 275 275 275 275 275 275 274 274 274 274 274 274 274 274 274 274 274 274 274 274 275 275 275 275 275 275 275 275 276 276 276 277 277 277 278 278 278 278 278 278 278 279 279 279 279 280 279 279 279 279 279 279 279 279 279 279 279 280 280 280 280 280 280 279 279 279 278 279 279 280 280 281 282 282 282 282
275 275 275 274 274 274 275 275 275 274 274 274 273 273 272 272 272 272 272 272 272 272 272 272 272 272 272 272 272 273 273 273 274 274 275 275 276 276 276 277 277 276 277 277 278 278 278 278 278 279 279 281 283 283 283 283 281 279 280 280 279 279 278 279 279 279 279 279 279 280 280 280 280 279 278 278 278 280 281 281 281 282 282 282 282
274 274 274 273 274 274 274 273 273 272 272 271 271 271 270 270 270 270 270 270 269 270 270 270 270 270 270 270 270 271 271 272 273 276 277 276 275 276 276 276 276 276 276 276 276 277 277 278 278 281 281 282 282 283 283 284 284 283 281 281 280 279 278 278 278 278 278 278 278 279 278 279 280 280 279 280 280 280 280 280 280 281 281 281 282
273 272 272 273 272 272 272 271 271 270 270 270 269 268 268 268 267 267 267 267 268 268 268 268 268 268 268 268 268 268 269 270 273 275 277 278 276 275 275 275 275 275 275 275 275 276 276 277 277 278 279 280 279 281 282 283 283 283 284 284 284 282 280 279 278 278 278 277 278 279 278 278 280 281 280 280 280 280 280 281 281 281 280 279 279
272 272 271 271 271 271 270 269 268 268 267 267 266 266 266 265 265 265 265 266 266 266 266 266 266 266 266 266 266 266 267 270 273 274 275 276 276 274 274 273 274 274 274 274 274 274 275 275 276 277 277 277 277 278 279 281 282 282 283 283 284 285 285 282 280 280 279 278 278 278 278 279 279 280 280 280 279 279 279 280 280 280 280 280 280
270 270 270 269 269 269 268 266 266 265 265 264 264 264 263 263 263 263 263 264 264 264 264 264 264 265 265 264 264 265 265 268 271 273 274 275 275 274 272 273 273 273 273 273 273 273 274 274 274 275 275 277 277 276 276 276 279 281 281 281 282 283 284 285 285 283 282 281 279 279 279 279 279 280 281 281 280 279 279 279 279 280 281 281 281
269 268 268 268 267 267 266 263 263 263 263 263 262 262 262 262 262 263 263 263 263 262 262 263 263 263 263 263 263 263 263 266 271 272 273 274 275 274 271 271 271 271 271 271 271 271 271 272 272 272 273 274 275 275 275 276 276 276 276 276 277 279 281 282 283 283 283 282 281 281 282 282 280 281 282 282 281 279 279 279 279 280 280 281 283
267 268 266 266 265 264 264 263 262 262 262 261 261 260 261 261 261 261 261 261 261 261 261 261 261 262 261 261 261 261 262 268 270 271 272 273 274 274 270 270 269 269 269 269 269 270 270 271 271 271 271 272 273 274 274 274 274 274 274 274 274 275 276 277 278 279 280 280 281 281 282 283 283 283 283 283 283 283 282 281 281 281 281 282 282
266 266 264 264 263 264 262 261 261 260 261 260 259 260 260 260 260 260 260 260 260 261 261 261 260 260 260 260 260 260 261 268 269 270 272 273 274 270 268 268 268 268 268 269 269 269 270 270 270 270 270 271 273 276 276 274 274 273 273 274 274 275 276 279 281 282 281 280 280 280 281 282 285 284 284 284 283 283 283 282 280 280 281 280 280
264 264 263 263 262 262 262 261 260 260 260 259 258 259 259 259 259 260 259 259 260 259 259 259 260 260 259 260 259 260 260 264 268 270 271 272 271 267 267 267 267 267 267 268 269 269 269 270 270 270 271 271 274 276 276 276 273 273 273 273 274 274 274 276 279 281 283 284 285 285 286 287 287 287 287 288 287 284 280 279 280 280 279 279 280
263 262 262 261 262 262 261 259 259 259 258 258 258 259 259 259 258 259 259 258 258 258 259 259 259 259 259 259 259 259 260 263 268 269 270 271 270 267 267 266 266 267 267 268 268 268 269 271 271 269 269 269 273 275 276 275 273 273 272 272 272 273 274 275 276 277 280 281 282 283 284 286 286 287 288 288 288 288 283 279 280 281 279 280 279
262 261 262 262 261 260 259 259 259 258 257 258 257 257 258 258 258 258 258 258 258 258 258 258 258 258 258 259 261 260 260 262 266 268 270 270 269 267 267 267 266 266 266 266 267 268 268 269 271 271 271 272 275 276 276 275 273 273 273 272 271 271 273 274 275 275 276 276 277 279 280 282 282 282 283 286 287 287 286 284 283 281 279 280 280
262 262 261 261 259 258 258 258 258 257 257 257 257 257 258 257 257 258 258 257 257 257 258 257 257 257 258 258 259 259 259 259 262 268 269 270 271 268 267 266 265 266 266 266 266 267 267 268 270 273 274 274 275 275 275 276 272 272 272 271 271 271 274 274 274 274 274 275 275 277 278 280 280 280 280 281 282 284 285 285 285 283 281 280 280
261 261 261 259 258 257 257 256 257 256 257 257 257 257 257 257 257 257 256 257 256 256 256 257 257 257 258 258 259 259 259 259 261 267 269 270 271 270 267 267 267 266 266 266 267 267 268 268 269 272 274 274 275 275 276 276 276 273 272 271 271 273 276 273 274 276 275 276 276 276 276 277 278 279 279 280 280 281 283 284 285 285 283 281 280
260 258 258 257 256 255 255 256 256 256 256 256 256 256 257 256 256 256 256 256 255 255 256 256 256 257 257 258 258 258 260 262 261 265 268 270 271 272 268 268 269 268 268 268 268 268 268 268 268 271 274 275 275 275 276 276 276 274 273 276 278 278 275 275 274 274 274 275 275 276 276 277 278 278 278 279 279 280 281 282 284 285 285 284 283
259 258 256 255 255 254 254 255 255 255 255 256 255 255 256 255 255 255 255 255 255 255 255 256 256 256 256 257 258 258 259 259 264 263 268 270 271 272 272 271 273 271 269 267 268 268 269 269 269 273 274 275 275 276 276 277 276 275 277 278 278 278 277 274 274 273 272 272 273 273 273 275 275 277 278 279 279 280 280 281 282 283 284 285 285
256 255 254 253 253 254 253 254 254 254 254 254 254 254 254 254 255 255 255 255 254 254 255 255 255 255 255 256 257 258 259 260 263 267 266 270 271 273 273 274 274 271 270 269 269 269 268 268 269 273 275 276 277 277 277 277 275 277 277 277 277 276 272 271 270 270 270 270 270 271 271 273 274 276 277 279 280 280 280 281 281 282 283 283 284
253 252 251 251 252 253 253 253 253 254 254 254 254 255 254 253 254 254 254 254 254 254 254 255 254 254 255 256 258 259 260 261 261 264 269 270 272 272 273 274 274 274 270 270 270 269 272 275 275 276 276 276 276 276 275 274 275 275 276 276 275 272 271 271 270 270 269 269 269 270 270 272 274 275 277 279 280 281 280 280 281 281 282 283 283
252 252 252 252 253 253 253 254 254 254 254 254 254 255 254 254 254 254 254 254 254 254 254 254 255 256 257 258 259 260 262 263 264 265 266 268 269 270 272 273 273 273 273 272 274 275 276 276 276 276 274 273 271 270 270 270 274 275 276 275 272 271 270 269 269 268 267 268 268 268 269 271 273 274 276 277 278 279 280 278 278 279 280 280 281
253 252 252 252 252 252 253 253 254 255 254 255 255 255 255 254 254 254 254 253 254 254 255 255 256 257 258 259 261 262 262 263 265 266 266 266 266 267 268 268 271 272 269 268 269 268 269 270 270 273 273 275 275 275 274 274 271 270 269 268 268 268 268 268 267 267 267 267 268 269 270 271 273 273 273 274 275 278 280 279 278 278 279 280 280
252 251 252 251 252 253 253 255 256 254 254 254 254 254 254 254 253 254 254 254 255 256 256 257 258 259 259 260 260 260 263 265 266 266 266 267 267 268 269 269 269 268 268 267 267 268 268 271 271 270 269 268 268 268 267 267 267 268 268 268 268 269 270 271 272 270 269 270 269 270 270 271 271 272 273 274 274 276 279 278 278 277 278 278 278
251 251 251 252 252 254 254 254 253 254 254 254 254 254 254 254 255 255 257 257 257 257 257 258 260 262 263 263 264 264 265 265 266 270 270 273 271 270 270 270 270 270 272 274 272 270 268 267 266 266 266 265 266 266 266 267 267 268 268 268 268 268 269 268 268 268 268 269 268 269 269 270 271 272 273 273 274 276 278 278 278 277 277 278 277
250 250 251 251 252 252 253 253 252 254 253 253 254 254 258 262 262 260 260 264 267 269 269 266 266 267 266 267 267 265 265 267 272 273 273 274 274 275 274 275 275 273 275 276 273 270 268 267 266 266 266 265 265 265 265 265 265 266 266 269 268 268 268 268 269 269 270 269 270 270 270 270 270 271 272 273 274 276 277 279 277 278 276 276 277
251 252 252 252 253 254 253 253 253 253 253 254 253 254 254 256 261 264 265 266 267 269 269 270 270 271 268 266 267 271 271 272 273 273 273 273 274 274 274 275 275 275 275 272 269 267 265 263 263 263 263 263 263 263 264 264 265 265 266 267 268 268 269 269 269 270 270 270 270 270 270 270 270 272 273 274 275 276 277 278 278 277 277 277 277
251 252 252 252 254 254 253 254 254 253 253 254 253 253 253 253 255 260 264 266 267 268 268 269 269 269 269 269 267 266 269 271 272 272 273 273 273 273 273 273 273 273 273 272 266 263 262 261 261 262 263 263 264 264 265 265 265 266 266 266 267 268 268 268 269 269 269 269 269 269 270 270 271 272 273 274 275 275 277 277 277 277 277 277 277
251 251 252 253 253 254 254 253 253 253 253 253 253 253 253 253 253 254 257 263 265 265 266 266 267 268 269 269 270 270 270 270 271 272 272 272 271 271 271 271 270 270 269 264 262 261 262 262 263 263 264 264 265 265 265 265 266 266 267 267 267 268 269 269 271 270 270 270 270 270 270 271 272 273 274 274 274 274 276 276 277 277 277 276 276
251 251 251 252 253 253 253 253 253 253 253 254 253 253 253 253 254 254 254 255 257 260 262 263 265 266 267 268 269 269 270 270 271 272 271 270 270 269 268 264 266 267 265 260 260 260 261 261 262 262 263 263 263 264 264 264 265 265 265 266 267 268 269 270 270 270 270 270 270 270 271 272 272 272 273 274 275 276 277 277 277 276 276 276 276
250 253 255 255 252 253 253 254 254 253 253 253 253 253 254 254 255 255 254 254 254 254 255 257 261 265 264 265 267 268 269 270 271 270 269 268 268 268 264 258 257 257 258 258 259 259 259 259 260 260 260 260 261 262 262 263 263 264 265 266 267 268 270 270 270 269 269 270 270 270 271 272 272 273 274 274 274 274 275 276 276 276 276 276 276
251 253 253 253 253 253 253 253 254 253 253 253 253 254 255 255 255 254 255 255 254 254 255 256 257 261 265 266 266 267 268 270 270 268 267 267 267 265 256 255 255 256 256 257 257 258 258 258 258 258 258 259 260 261 261 262 263 264 265 266 267 269 270 269 269 268 269 270 270 271 272 273 273 274 274 274 275 275 275 275 275 275 276 276 276
251 251 252 252 252 253 253 253 252 253 256 256 255 254 254 255 255 254 254 253 254 254 254 255 255 256 259 258 260 265 267 269 268 266 265 265 265 259 255 255 255 255 256 256 256 257 256 257 257 257 258 258 259 260 261 262 263 264 265 266 267 268 270 270 269 270 270 270 271 271 272 272 273 274 274 274 274 275 275 274 274 274 275 275 275
251 251 252 251 252 252 252 253 253 256 255 254 254 254 253 253 253 254 254 254 254 254 254 254 256 254 254 256 260 260 262 266 265 262 261 261 257 256 255 255 256 255 255 255 256 256 256 256 256 257 257 258 258 259 260 261 262 263 264 265 266 267 271 272 272 272 272 272 272 272 273 273 274 274 274 274 274 274 274 274 274 274 274 274 274
249 253 255 256 257 255 253 253 252 252 252 252 252 253 253 253 253 253 253 252 252 253 253 253 253 254 254 256 257 260 263 259 256 255 255 255 256 255 255 255 255 255 255 255 256 256 256 256 257 257 258 258 259 259 260 261 261 262 263 264 265 267 268 269 270 271 272 272 273 273 274 274 274 274 273 273 273 273 273 273 273 274 274 273 273
251 251 252 255 254 255 255 254 252 251 252 251 251 251 252 253 252 252 252 252 252 252 252 253 253 253 254 256 258 262 260 257 255 254 254 255 255 255 255 255 255 255 255 255 256 256 256 256 257 257 258 258 259 259 260 261 261 262 263 263 264 265 266 267 268 268 268 270 271 273 274 274 274 274 274 274 274 274 273 273 273 273 274 273 273
247 251 252 254 254 253 252 252 251 250 250 251 252 251 251 253 254 253 252 252 252 252 252 252 253 253 255 259 264 264 260 256 254 254 254 254 255 255 255 255 255 255 256 256 256 257 257 257 257 258 258 259 259 260 260 261 261 262 263 263 263 264 265 265 265 266 266 267 269 270 271 272 272 273 273 274 274 274 273 273 272 272 272 272 272
246 247 247 248 251 250 249 250 250 252 251 252 251 251 252 253 252 252 252 252 252 253 252 252 253 253 256 260 263 264 258 254 253 254 254 254 254 254 255 255 255 255 256 256 257 257 257 258 258 258 259 259 260 261 261 261 262 262 262 263 263 263 264 264 264 265 265 266 266 267 267 268 270 271 272 274 271 271 271 271 272 271 271 271 270
248 247 248 249 248 248 248 249 249 248 249 250 252 253 254 252 250 251 251 252 252 252 252 252 252 253 254 259 258 259 254 252 254 253 253 254 254 254 254 254 255 255 256 257 257 258 258 258 258 259 260 260 261 261 261 262 262 262 262 263 263 263 263 263 264 264 265 265 265 266 266 266 266 265 265 267 268 269 269 269 269 269 269 269 269
247 248 249 249 249 248 249 248 249 250 250 252 253 253 253 251 250 250 250 250 251 251 251 251 252 252 252 254 254 253 252 252 252 252 253 253 253 253 254 254 254 255 255 256 257 257 258 258 258 259 260 261 262 263 263 263 263 262 262 262 263 263 263 263 263 264 264 265 265 266 266 266 266 266 266 265 264 266 268 268 268 267 268 267 267
246 247 247 246 247 246 247 248 250 250 252 251 249 249 250 249 249 249 250 250 251 251 251 251 252 251 252 251 251 251 251 251 252 252 252 252 253 253 253 253 254 254 254 255 256 256 257 257 258 259 259 261 262 263 263 264 264 263 263 263 263 263 263 263 263 264 264 264 264 265 265 265 265 265 265 264 264 264 266 266 267 267 266 266 266
246 246 247 247 248 248 248 247 250 249 250 249 249 248 248 247 247 248 250 250 250 251 251 251 250 250 251 250 251 251 251 251 251 252 252 252 252 252 253 253 253 253 254 254 255 255 256 257 257 258 259 260 261 262 263 264 264 264 264 264 264 264 264 265 264 264 263 263 264 264 264 265 265 265 265 265 265 264 262 262 263 265 265 265 266
246 246 248 248 248 249 249 250 249 249 248 248 248 248 248 248 248 249 250 251 251 250 250 249 249 249 249 250 250 250 251 251 251 251 251 251 251 251 252 252 252 253 253 253 254 254 255 255 256 257 258 260 261 262 263 264 264 265 265 265 265 265 264 265 264 263 263 264 264 264 264 264 264 264 264 264 264 264 264 263 263 262 263 264 265
246 247 248 249 248 248 249 249 250 251 249 248 248 248 248 248 248 248 247 248 248 248 248 248 248 248 249 249 250 250 250 250 251 251 251 251 251 251 251 251 252 252 252 253 253 254 254 255 255 256 258 260 261 262 263 263 264 265 266 266 266 265 265 265 264 264 264 264 264 263 263 263 263 263 264 263 263 263 263 263 264 264 264 265 265
247 247 247 248 249 250 249 250 249 249 248 247 247 247 247 246 247 246 247 247 247 248 246 247 248 248 248 249 250 250 250 250 250 250 250 250 250 250 250 251 251 251 251 252 252 252 253 254 255 256 258 260 261 262 263 264 264 264 265 266 267 266 265 265 264 264 264 263 263 264 263 263 263 263 263 263 263 263 264 264 264 264 264 264 264
247 248 248 249 250 250 250 250 249 248 247 246 246 246 246 246 245 246 246 246 246 247 246 246 248 247 248 248 249 249 249 249 249 250 250 250 250 250 250 250 250 250 250 251 251 252 252 253 254 255 257 259 260 261 263 264 264 264 265 266 267 266 266 265 264 265 264 263 263 263 263 263 263 263 263 263 263 263 263 263 264 264 263 263 263
249 249 249 249 250 250 249 248 247 247 245 245 244 244 246 245 246 245 245 245 245 246 247 246 246 247 248 248 249 249 249 249 249 249 250 249 249 250 250 249 250 250 250 250 251 251 251 252 253 255 257 259 260 261 262 264 265 265 265 266 266 266 266 265 264 264 265 264 263 263 262 262 262 262 262 263 263 263 263 263 263 262 262 262 262
Wind_Speed
3 3 3 4 4 5 4 4 5 4 5 5 4 4 4 4 4 3 4 5 4 6 6 7 7 7 7 7 7 7 7 8 6 6 6 7 6 6 7 8 9 9 10 13 9 5 5 6 7 7 6 5 6 6 6 6 6 6 6 6 7 6 6 8 12 16 9 5 8 7 4 3 5 5 8 7 7 7 8 8 8 8 9 8 9
3 3 3 3 4 4 4 3 3 4 4 4 4 4 4 4 4 5 5 6 5 6 6 5 5 6 6 8 8 9 8 8 8 7 8 8 8 5 6 7 7 8 7 8 10 10 10 9 9 7 5 6 6 6 6 6 6 6 6 6 7 7 6 8 11 11 16 4 8 5 6 3 8 3 6 8 9 6 8 8 7 8 8 8 8
1 1 2 3 3 3 3 3 3 4 4 4 5 5 5 6 5 5 6 6 5 5 6 6 7 8 8 9 9 9 9 9 8 8 8 9 10 9 8 7 8 8 9 9 8 7 9 10 12 11 7 7 7 7 6 7 6 6 8 6 7 8 7 8 10 13 14 12 5 9 6 5 8 7 6 8 7 6 7 7 8 8 8 8 8
2 2 2 3 3 4 4 4 4 4 4 4 5 5 5 5 5 5 5 5 7 7 5 6 6 6 7 8 8 8 10 10 10 8 8 8 9 10 10 9 9 8 9 9 9 9 9 10 10 9 9 11 11 8 7 6 7 7 7 7 7 8 8 7 9 10 11 13 8 7 7 7 8 6 6 6 6 7 7 7 5 7 7 7 9
3 2 2 3 4 4 5 5 4 5 5 5 5 5 5 5 5 4 5 5 4 5 6 4 5 5 6 7 8 8 8 9 9 9 8 7 8 9 9 9 9 10 10 10 9 10 10 10 11 9 8 10 10 10 8 8 8 7 8 8 7 7 7 7 9 9 11 13 12 6 7 7 7 6 4 6 7 7 7 8 7 7 7 6 6
1 1 1 1 3 5 4 5 5 5 5 4 5 5 5 4 4 4 4 5 5 4 5 5 5 7 7 7 8 8 8 8 8 9 9 9 9 9 9 9 10 10 11 11 10 9 10 11 11 10 9 10 11 10 10 10 9 8 9 9 8 7 8 8 8 9 10 12 11 11 6 8 8 8 5 6 7 8 8 7 5 5 6 6 8
1 0 1 2 3 4 4 4 3 3 3 4 4 3 4 4 5 6 6 6 7 7 7 7 7 6 8 8 8 9 9 8 8 8 9 8 8 9 10 11 11 10 10 11 11 10 10 10 11 11 11 11 11 11 11 11 10 11 10 10 8 8 9 9 8 9 10 11 11 9 9 7 7 11 6 6 8 8 9 7 8 5 6 8 9
3 3 4 4 4 2 2 3 2 3 3 3 3 4 5 5 6 6 6 7 7 7 8 9 9 8 9 9 9 8 9 9 8 8 8 8 9 10 10 11 12 12 12 12 11 12 12 11 11 11 11 11 11 11 10 10 9 10 10 9 8 9 9 9 8 8 10 10 10 11 7 8 6 6 3 0 5 7 5 6 11 11 8 7 9
5 5 4 3 3 2 2 3 3 3 3 3 4 5 5 5 6 6 5 6 6 6 7 7 9 10 8 8 9 9 9 9 8 9 10 11 10 11 11 12 12 13 13 13 12 12 11 11 11 11 12 15 16 16 15 13 11 11 11 9 9 10 10 9 9 9 9 9 11 9 9 9 8 7 6 7 9 12 4 7 11 10 5 6 8
4 3 4 2 2 1 1 2 2 2 3 4 5 6 6 7 7 7 7 6 6 7 7 7 7 8 11 11 9 9 8 7 12 22 19 14 13 12 12 12 12 12 12 12 11 11 10 11 11 17 20 20 20 22 24 24 23 17 13 11 10 11 11 11 11 10 9 11 11 11 11 11 10 7 8 9 8 6 6 5 10 9 5 8 10
3 4 3 2 2 2 3 4 5 6 6 7 6 7 9 8 8 7 7 7 8 8 8 9 9 10 10 11 12 10 9 9 20 20 22 23 16 12 11 11 11 11 12 11 13 12 11 10 10 14 16 16 17 23 23 24 24 26 27 26 20 15 12 13 12 10 11 11 11 11 11 13 13 8 8 8 7 8 10 9 9 9 8 8 13
5 4 3 3 4 5 5 5 6 6 6 6 7 6 7 7 8 8 9 10 9 8 9 9 10 9 9 11 11 10 10 14 21 22 23 23 21 16 12 12 10 12 11 11 11 11 12 11 11 9 10 12 14 13 17 22 25 25 25 24 25 26 24 17 14 13 12 12 13 13 11 13 13 9 7 6 7 7 8 9 9 10 10 10 10
4 3 3 3 4 4 4 4 4 4 5 6 6 6 7 7 7 8 9 8 9 9 10 11 10 9 10 12 11 11 10 16 20 22 22 23 23 20 12 12 11 11 10 12 11 12 10 11 10 11 10 22 18 14 14 14 18 24 26 26 26 26 25 26 27 19 13 14 14 16 14 13 14 12 9 8 4 8 7 9 9 10 10 11 12
4 3 3 3 3 3 4 4 4 4 4 5 5 6 6 7 6 6 7 8 7 8 7 9 8 9 9 11 12 11 10 16 22 23 23 24 23 21 14 15 15 14 15 14 14 15 15 13 13 13 12 12 12 12 11 12 12 12 13 12 12 14 21 25 26 31 25 17 15 16 16 13 15 13 10 5 8 9 8 10 8 10 10 13 13
3 3 3 3 3 3 4 3 4 4 4 5 5 5 6 6 6 6 6 7 8 8 8 9 8 8 9 10 11 12 10 20 22 24 24 24 24 22 14 14 14 13 13 12 13 12 13 14 15 17 17 15 13 17 17 15 14 14 15 15 15 16 16 16 15 13 14 14 15 17 17 16 15 15 13 8 11 11 10 11 10 10 11 10 10
3 2 2 2 3 3 3 4 4 4 5 5 5 7 6 5 7 7 6 6 5 6 7 6 9 10 9 10 11 12 11 21 23 23 25 24 26 16 13 13 13 13 13 13 13 13 13 13 13 14 14 14 17 23 20 16 15 16 17 16 14 13 14 16 23 22 19 16 15 15 16 16 17 15 13 11 10 10 9 8 6 7 8 10 12
2 1 1 2 2 3 4 4 5 5 5 6 6 6 7 7 6 5 7 6 7 7 7 8 7 9 11 10 11 12 11 16 23 24 25 26 21 13 13 12 11 13 13 13 13 13 13 13 14 15 15 14 19 23 24 22 15 15 14 14 13 13 15 15 23 28 29 30 31 32 33 34 33 32 30 29 19 11 8 9 12 9 11 11 12
1 1 1 1 3 4 3 4 5 6 5 6 7 7 6 5 5 5 7 9 8 7 8 8 7 7 10 11 10 12 12 16 23 24 25 26 22 15 12 11 13 13 13 13 12 12 13 22 19 16 16 16 22 25 25 20 15 14 14 16 18 15 13 11 11 15 26 32 33 33 32 31 32 32 31 31 32 21 12 15 13 11 13 11 14
1 1 1 2 2 3 3 3 4 5 6 7 6 8 7 7 6 5 6 6 8 7 8 8 9 8 8 10 15 15 12 14 22 24 26 24 20 13 11 10 12 13 13 13 11 12 14 15 23 22 20 21 25 23 24 20 15 14 12 13 14 15 14 14 13 15 15 15 14 16 18 23 21 18 17 28 29 23 16 15 12 13 12 13 14
1 0 1 2 2 3 3 4 4 5 7 7 6 7 6 6 6 6 6 6 7 7 7 8 10 10 9 9 10 10 12 12 15 26 24 25 25 16 11 11 11 13 12 13 13 12 13 13 16 20 22 24 25 26 26 26 18 14 12 13 16 17 10 11 12 13 14 14 15 16 16 15 14 14 14 15 16 16 17 16 14 13 13 14 13
1 0 1 2 2 3 3 3 6 6 5 7 6 6 6 7 7 6 7 7 6 8 8 9 9 10 9 9 9 10 9 13 14 25 25 25 26 22 12 12 12 12 12 13 11 10 8 8 9 19 27 28 28 28 27 26 24 17 13 12 13 17 21 16 18 23 16 15 14 14 15 15 15 15 15 14 14 13 14 15 15 15 15 14 14
0 1 2 2 3 3 4 4 4 5 5 6 7 7 6 5 6 7 6 6 8 9 9 8 9 9 8 9 9 10 11 17 15 20 25 26 25 27 16 13 14 13 13 9 9 9 12 15 11 18 27 27 27 28 28 27 27 17 16 25 29 30 21 16 14 12 10 12 12 13 13 13 13 15 15 15 14 14 14 14 15 16 16 15 15
1 1 2 3 3 4 4 5 6 5 6 6 6 8 6 5 6 6 7 7 7 8 9 9 9 9 9 8 8 10 11 12 21 18 23 26 27 26 27 22 25 17 12 13 12 12 11 12 13 23 28 29 28 28 28 30 24 18 27 27 27 29 24 12 10 9 9 10 12 12 14 13 14 14 13 13 14 14 14 13 14 15 15 15 15
1 1 2 3 4 4 5 5 5 5 6 6 6 7 7 6 6 5 6 6 7 8 7 7 8 8 10 10 9 10 10 10 15 22 20 25 26 27 28 28 28 17 14 12 10 10 11 13 16 26 28 29 29 28 27 26 19 27 27 28 28 26 15 12 11 11 11 12 13 13 13 13 13 15 14 14 14 13 13 13 14 14 14 13 14
1 2 4 4 4 4 5 5 6 6 6 6 6 7 7 5 6 5 5 5 6 7 8 7 8 8 8 10 10 10 11 11 11 14 23 25 27 28 29 29 28 29 19 13 14 13 19 29 32 30 29 29 30 29 23 23 27 27 27 27 25 12 11 10 10 10 11 13 12 13 13 13 13 15 15 16 16 14 12 12 11 12 12 13 13
2 4 4 4 4 4 5 6 6 6 6 5 6 6 7 6 6 7 5 6 5 7 8 7 8 8 9 9 11 12 12 12 12 11 11 16 18 26 30 29 29 29 27 22 28 33 32 31 33 32 27 23 16 12 11 12 21 26 27 25 13 11 10 11 10 11 13 12 13 13 13 11 12 13 15 16 17 16 13 12 10 11 11 11 11
3 4 4 4 4 4 5 6 6 5 5 5 5 6 5 5 6 7 6 6 6 7 8 8 8 8 10 12 12 13 13 13 11 10 10 11 12 14 15 15 22 25 18 14 16 17 19 21 17 22 22 27 27 24 23 22 17 14 11 10 10 11 11 11 11 13 13 12 13 12 13 12 12 12 14 14 15 16 15 12 11 11 11 11 11
3 4 4 4 4 4 5 7 7 6 6 5 6 7 5 5 6 7 8 6 7 8 8 9 10 11 12 14 11 9 9 9 10 11 12 12 12 11 10 11 10 9 11 11 13 14 13 15 18 12 11 11 11 9 9 10 11 11 11 10 11 11 13 19 20 14 13 12 12 12 13 13 13 14 13 13 14 15 15 15 13 11 11 10 11
3 4 4 4 5 4 5 5 6 6 7 6 6 7 8 6 7 8 9 8 8 8 9 12 11 10 9 7 9 12 11 10 9 16 19 23 20 16 12 11 11 11 14 24 17 10 8 8 8 8 8 9 8 8 9 9 9 10 12 11 10 11 10 10 11 12 12 12 12 14 14 11 14 12 14 14 15 13 14 15 13 12 10 10 12
3 4 4 4 4 4 5 5 5 6 6 7 8 8 9 14 10 8 9 13 17 19 17 11 10 9 9 8 8 10 10 12 24 29 27 28 28 29 27 29 29 23 25 31 18 9 7 6 7 8 9 8 9 10 10 10 11 11 10 12 12 10 11 10 10 11 12 11 13 12 13 12 13 13 12 13 13 12 14 15 13 12 11 11 11
3 4 3 4 4 4 5 5 5 5 5 6 6 8 11 10 12 15 16 15 16 18 19 20 21 19 12 10 11 22 25 26 26 26 27 26 27 27 27 26 27 28 27 19 11 7 8 8 8 8 8 8 9 10 10 10 11 11 12 11 10 12 13 12 11 11 13 13 12 13 11 13 13 13 12 12 13 13 15 15 14 12 12 12 12
4 4 4 3 5 5 4 5 5 5 5 5 5 6 7 11 14 9 9 12 14 16 17 17 15 15 18 18 15 11 17 22 25 25 26 27 26 26 25 26 26 25 24 21 10 8 7 8 8 8 8 9 10 10 11 11 11 10 10 11 12 12 11 12 11 12 12 13 12 12 11 11 12 12 13 12 13 13 14 12 12 11 11 11 11
5 4 4 4 4 5 5 4 4 4 5 6 6 4 6 7 9 15 17 14 11 9 11 9 11 16 20 20 21 19 19 21 24 24 24 25 25 24 25 24 22 22 21 12 9 10 9 9 9 8 8 9 10 10 11 11 11 11 10 11 12 10 11 13 15 12 11 11 11 10 11 11 12 12 13 12 13 14 15 11 9 10 10 10 10
5 4 4 4 5 5 4 4 4 5 4 5 5 6 5 5 7 8 10 14 20 12 1 3 7 16 19 21 20 20 22 23 23 23 23 23 23 23 22 16 18 18 15 10 10 10 11 11 11 10 10 10 10 11 12 12 12 12 12 11 12 12 13 12 10 10 9 10 9 9 10 9 11 11 11 9 12 14 14 12 10 10 10 11 10
4 5 7 6 4 5 5 4 5 5 5 5 5 5 6 6 6 6 7 9 9 11 16 14 13 16 16 14 16 20 22 22 22 22 23 22 23 23 19 11 13 12 10 8 9 9 10 11 11 11 11 12 13 12 12 12 13 12 11 12 13 13 12 11 10 9 8 9 9 9 9 10 10 10 10 11 11 9 8 8 10 11 10 9 9
4 3 3 4 4 4 4 4 4 5 5 5 5 5 5 6 7 6 7 6 7 10 12 11 11 18 24 21 22 23 23 22 22 22 21 22 21 21 12 11 10 10 10 9 9 9 9 10 10 10 10 10 10 10 11 11 12 12 13 13 14 14 12 11 10 8 8 9 10 11 11 10 10 10 10 10 11 10 7 5 4 5 8 9 8
4 4 3 3 4 4 5 5 4 5 6 6 5 4 5 6 6 6 6 5 7 7 8 11 12 13 12 7 13 22 23 20 19 18 18 18 20 11 5 7 8 9 9 9 9 9 9 9 9 9 10 11 11 11 11 12 13 13 14 14 13 14 13 10 10 9 9 9 9 10 10 10 10 10 10 10 9 7 6 4 5 5 5 7 7
4 4 4 4 5 5 5 5 5 6 5 4 4 5 5 5 5 5 6 6 6 6 8 8 8 9 11 12 15 11 14 18 20 14 12 12 10 7 7 7 7 7 9 8 8 9 10 10 9 10 9 9 10 10 11 11 12 12 12 13 14 13 19 16 14 12 11 10 10 10 9 9 9 9 8 8 8 7 6 5 5 5 6 6 6
3 6 9 9 7 5 4 4 4 3 4 4 4 5 6 5 5 5 5 5 5 6 7 7 7 8 9 9 11 12 12 10 11 11 10 9 8 7 7 7 7 7 7 8 9 9 9 10 10 9 9 9 10 10 10 11 12 12 12 12 13 12 12 12 12 11 10 10 10 10 10 10 9 8 7 6 7 6 6 5 5 6 7 8 8
4 3 5 8 6 6 5 5 4 4 6 4 5 4 4 5 5 5 5 5 6 6 6 6 7 7 8 9 9 9 8 9 9 10 10 10 10 9 7 8 8 8 9 9 9 9 9 9 9 10 10 10 10 10 10 10 11 11 11 10 11 12 11 10 11 11 11 12 11 10 10 10 9 8 7 6 6 6 6 6 5 6 7 7 7
3 4 4 5 6 5 4 4 4 5 4 5 5 5 5 6 5 5 5 5 5 6 6 7 7 7 7 11 18 16 7 7 9 9 9 9 9 9 9 8 8 9 9 8 9 9 9 9 10 10 10 10 10 9 10 10 10 10 11 11 11 11 11 10 10 10 11 10 10 9 9 9 8 6 7 6 5 5 5 5 5 5 6 6 7
5 4 4 4 5 3 4 5 6 5 5 6 5 5 6 6 5 4 5 5 6 6 7 7 7 7 10 18 16 18 9 5 6 8 8 8 8 8 8 7 7 7 8 9 9 9 9 10 10 10 10 10 10 10 10 10 10 10 10 11 11 10 10 11 10 9 8 8 9 9 9 8 8 7 6 5 2 3 3 4 5 5 5 5 5
5 4 5 5 4 4 4 5 4 4 4 4 5 5 5 5 4 5 5 6 5 6 5 7 8 7 7 12 14 15 6 6 6 7 7 7 8 8 8 8 8 8 8 8 8 8 9 9 10 10 10 10 10 10 10 10 10 10 10 10 9 11 11 10 10 10 10 9 9 9 9 8 7 6 6 5 3 3 3 3 3 2 2 3 6
4 5 5 4 4 3 5 4 4 5 4 5 5 5 5 4 4 4 5 5 5 5 5 6 6 7 7 9 8 7 6 7 7 7 7 8 7 8 8 8 8 8 8 8 8 8 9 9 9 10 10 10 10 10 9 9 9 9 10 10 10 11 11 10 10 10 10 9 9 8 8 7 7 7 7 7 5 3 3 5 4 4 4 4 5
5 4 4 4 3 4 4 4 4 5 6 5 4 4 5 3 5 4 4 5 6 5 5 5 5 6 7 7 7 7 7 7 8 8 7 7 8 8 8 9 9 9 9 9 8 9 9 9 9 10 11 10 11 10 10 9 8 8 8 10 9 8 10 10 9 9 9 9 8 7 7 6 6 6 6 6 6 4 3 3 5 6 6 4 5
4 4 5 4 4 6 5 4 5 4 4 5 5 5 5 4 5 4 5 5 5 5 6 5 5 5 6 6 6 7 7 7 7 7 8 7 7 8 8 8 9 9 8 8 8 9 9 9 9 9 10 10 11 11 10 10 10 8 8 8 9 9 10 9 9 9 9 8 8 7 6 6 6 6 7 5 5 5 4 4 4 4 5 6 6
4 4 4 4 5 6 5 5 3 4 5 5 4 4 5 5 5 5 5 6 5 6 5 5 5 6 6 6 6 7 8 7 7 7 8 8 8 8 8 8 9 9 9 8 8 8 9 9 9 9 10 10 10 11 11 10 10 10 8 8 8 10 10 10 9 8 8 8 7 6 6 5 6 6 7 6 5 5 6 5 5 5 5 5 5
5 5 5 5 4 4 5 4 5 5 4 5 3 5 5 5 5 5 6 5 5 6 5 5 5 5 6 6 6 6 7 7 7 7 7 7 7 7 8 8 9 9 9 9 8 8 8 9 9 10 10 10 10 10 10 10 10 11 10 9 9 11 14 14 9 9 8 8 7 7 6 6 6 6 6 6 5 5 6 5 5 5 6 5 5
4 5 5 5 4 5 5 5 5 5 5 4 3 5 5 4 5 5 5 5 5 5 5 5 6 5 5 6 6 6 7 8 7 7 7 7 7 7 8 8 8 8 8 9 9 9 9 9 10 9 10 10 10 10 10 10 10 11 12 10 14 22 18 19 12 10 11 9 7 8 7 6 6 6 6 6 6 5 6 6 6 6 6 6 7
5 4 4 4 5 5 5 5 5 5 5 5 5 5 4 5 5 6 5 5 5 5 6 5 5 5 6 6 8 7 6 7 7 7 7 7 7 7 7 8 8 8 8 8 9 9 8 9 9 9 10 10 10 10 10 10 9 10 11 13 21 19 16 16 15 16 11 6 8 7 7 7 7 6 6 6 6 7 7 7 7 7 7 7 7
5 5 5 5 5 4 4 5 5 5 5 5 5 6 5 6 6 6 5 5 6 6 5 5 5 5 5 6 7 6 7 7 7 7 7 7 7 7 8 8 8 8 8 8 8 8 8 8 8 9 9 10 10 10 10 10 9 11 16 22 22 20 18 15 11 14 17 10 7 7 7 8 7 8 7 7 7 7 8 8 8 8 7 7 6
Wind_Direction
41 35 35 32 47 37 22 25 21 19 23 23 24 8 4 7 5 341 341 347 351 347 347 343 339 338 335 333 331 328 328 327 329 326 325 321 320 315 316 324 325 323 327 325 324 312 301 296 295 291 290 285 280 283 282 277 273 262 260 264 263 254 245 252 261 275 272 218 269 263 275 259 282 217 249 254 260 247 233 232 233 230 230 228 229
26 15 25 29 41 18 4 4 24 20 23 11 2 349 342 342 344 351 348 330 349 335 334 330 328 326 328 325 326 327 325 324 326 331 327 324 319 318 317 315 310 306 310 307 313 319 319 312 296 285 281 276 277 275 272 277 271 270 263 251 258 260 233 252 265 269 280 262 273 264 271 200 263 173 228 247 253 245 240 234 229 228 231 230 230
342 50 33 21 358 4 360 6 6 15 14 7 359 347 343 335 347 352 335 330 330 327 323 326 326 328 327 325 325 325 324 322 324 328 326 326 322 320 320 317 312 309 307 298 295 296 300 302 304 305 303 290 274 267 271 268 264 262 264 251 256 257 249 239 260 272 277 280 240 271 250 247 229 248 224 243 245 243 248 242 229 229 228 227 231
346 14 7 1 10 360 8 360 2 5 4 353 351 334 336 328 330 337 321 325 323 321 325 317 316 315 311 311 313 313 317 317 319 321 320 320 319 315 316 316 310 305 297 296 297 293 287 288 285 289 298 299 295 288 274 268 267 264 263 259 251 259 251 249 245 260 277 282 269 252 264 251 261 244 245 253 251 256 239 253 240 240 232 222 225
342 352 19 349 4 12 353 8 3 349 348 345 334 328 323 321 318 314 313 313 307 312 312 304 302 300 303 304 305 305 303 306 309 312 314 313 309 308 306 306 304 300 296 292 288 287 285 279 282 284 282 282 285 287 285 278 271 270 268 266 260 258 256 246 254 253 267 271 278 258 258 261 263 265 224 246 257 247 251 244 237 239 239 235 232
310 307 27 23 8 9 359 0 359 347 337 327 314 309 309 311 307 304 308 309 309 303 301 310 309 309 311 308 305 304 303 306 308 309 311 311 307 303 300 297 297 293 291 288 284 280 280 281 282 280 277 273 276 278 282 282 280 270 268 268 264 261 262 257 252 257 258 266 269 281 255 264 271 263 231 220 247 259 258 251 249 240 239 245 233
344 69 66 70 42 21 5 351 335 323 316 307 313 327 333 334 336 335 336 334 329 328 328 325 324 320 315 314 311 310 309 309 312 308 304 301 299 299 298 296 290 289 286 286 284 278 273 273 276 277 275 272 272 272 276 278 281 280 275 273 268 267 266 262 257 258 260 268 271 259 270 251 244 269 252 211 239 240 256 270 265 232 222 229 246
72 86 75 55 50 11 341 311 323 324 318 333 342 347 344 340 342 338 339 337 333 334 333 330 327 328 320 318 316 318 317 318 317 313 307 306 304 298 295 293 292 289 287 283 283 283 283 280 274 271 269 270 273 273 271 274 273 275 277 278 278 274 270 271 268 261 263 266 266 276 256 266 255 250 291 5 275 267 229 239 256 252 230 226 228
70 71 72 69 32 7 348 348 358 342 346 350 350 346 342 337 337 337 333 330 331 326 325 328 326 322 320 321 322 322 324 324 325 325 321 314 309 303 301 297 295 294 290 287 283 281 277 277 280 280 275 272 264 266 266 263 269 275 272 272 273 273 274 273 270 268 267 265 272 267 271 265 253 251 249 236 238 253 234 196 247 255 252 244 238
87 83 79 68 43 19 2 13 2 345 359 354 354 347 343 340 336 335 335 331 329 327 331 333 326 327 327 324 326 327 323 323 321 318 316 313 310 305 299 294 291 287 287 287 282 277 276 278 278 279 282 284 285 284 283 280 274 269 270 269 268 269 268 269 270 267 266 268 265 270 270 264 260 237 236 237 242 259 262 227 248 257 237 254 259
108 101 82 70 61 40 34 15 3 7 2 357 351 349 344 341 338 335 337 338 337 339 337 335 340 335 330 327 326 326 323 321 319 318 316 312 308 302 298 293 287 284 281 281 284 287 285 282 282 287 287 287 288 289 287 285 283 281 279 276 273 266 266 267 264 262 264 262 265 264 262 267 263 246 235 242 231 223 236 236 246 256 245 246 263
80 72 57 43 35 30 19 11 4 1 358 353 345 342 338 338 339 339 338 339 340 341 338 338 335 333 327 324 320 321 318 318 319 317 314 312 309 305 297 290 287 285 282 283 284 288 290 290 288 284 282 287 289 287 284 285 287 286 284 280 277 273 269 266 268 268 259 260 262 260 260 258 267 255 238 230 233 225 231 237 238 243 250 246 251
78 71 53 52 33 30 18 12 357 353 350 344 336 337 338 337 340 340 338 338 334 335 333 331 328 329 326 322 320 320 316 316 316 316 313 311 309 307 297 289 286 284 284 286 287 289 290 290 291 285 284 288 287 285 287 288 287 286 285 284 281 277 274 271 268 266 266 261 259 263 254 261 263 258 238 236 202 225 221 235 234 239 242 249 251
79 75 62 50 33 25 14 359 350 341 339 336 338 337 339 336 332 329 325 329 328 322 321 321 322 323 323 320 316 316 310 312 313 312 311 309 308 306 299 298 296 294 296 298 301 301 299 299 294 290 285 280 277 279 277 277 279 279 281 280 280 276 275 271 269 267 265 264 262 260 260 253 256 264 256 224 224 228 222 235 224 237 237 242 249
75 77 64 49 34 17 1 348 342 334 333 334 335 331 329 324 326 325 325 322 323 321 323 321 319 318 318 315 310 308 306 309 311 310 310 309 308 307 302 300 297 294 295 295 292 289 291 293 294 294 296 296 295 294 293 292 291 289 285 281 277 276 273 270 263 260 260 258 259 261 264 262 261 259 263 239 234 238 229 231 224 228 238 249 259
85 67 56 39 24 1 352 340 332 331 329 331 329 324 322 320 321 321 316 311 303 307 306 307 310 313 312 310 306 303 304 309 309 309 309 309 309 307 304 298 295 293 294 297 296 296 293 290 287 285 281 280 286 288 286 282 276 275 273 272 271 267 265 264 268 267 264 258 254 255 257 261 261 260 258 251 245 247 248 250 244 236 239 246 250
97 74 60 22 5 353 347 339 331 328 328 322 319 317 320 318 316 314 311 310 311 312 307 308 309 307 307 305 302 300 299 307 309 309 310 309 309 303 299 297 295 296 296 300 300 300 301 302 303 303 303 304 304 302 299 296 293 286 280 278 275 272 272 274 276 279 278 274 271 268 267 265 264 262 260 258 253 234 232 235 237 225 231 240 246
117 81 20 9 349 345 339 332 320 316 315 311 309 309 308 303 302 313 310 312 310 307 308 305 301 300 299 299 298 298 299 305 308 308 308 306 305 303 301 295 295 297 298 296 296 296 297 299 301 299 296 293 295 292 291 289 277 271 270 272 273 268 265 268 270 269 270 272 273 274 273 271 268 265 263 261 258 250 225 232 231 226 233 228 243
115 57 342 344 324 322 315 312 304 302 301 301 303 303 304 301 302 302 294 296 296 303 302 300 298 295 290 291 298 299 297 303 306 305 304 303 303 296 294 289 290 295 298 297 295 296 295 295 293 293 291 291 293 295 297 299 295 292 284 274 270 268 271 276 275 276 276 274 271 268 263 262 264 264 263 261 258 253 243 237 229 228 230 229 235
131 110 281 298 298 299 299 295 292 293 294 296 294 290 293 298 297 298 295 291 295 299 297 294 297 296 295 295 294 295 297 296 299 302 302 301 301 299 292 292 290 289 289 290 288 278 274 271 275 288 291 292 292 293 293 291 289 288 293 292 291 288 300 289 274 269 268 266 266 266 268 268 265 259 257 255 253 247 242 238 234 227 226 231 230
142 225 280 282 282 287 290 283 287 284 281 285 287 289 288 289 295 292 294 295 291 294 295 293 292 293 295 293 293 294 290 294 295 299 298 299 300 300 291 285 283 283 281 279 271 271 270 279 284 289 291 290 290 290 289 288 287 283 278 273 275 283 288 283 283 285 285 283 274 267 263 259 258 256 253 251 246 242 240 236 233 228 223 226 228
178 239 269 279 284 288 284 284 277 279 282 284 288 283 279 277 282 285 286 292 295 293 295 296 294 294 294 293 292 291 290 291 291 292 294 295 297 298 297 287 288 285 285 280 284 284 288 289 278 285 291 292 291 290 289 289 286 283 277 279 282 284 283 280 281 282 277 283 286 286 283 274 263 254 249 247 244 240 238 235 233 230 225 223 223
225 254 279 283 285 286 286 283 285 282 282 278 280 283 284 282 276 277 284 288 288 292 295 296 297 296 298 296 293 291 289 284 286 285 288 294 298 298 297 296 297 297 292 287 282 280 278 279 277 283 288 290 289 288 286 286 286 284 287 289 290 291 293 293 290 286 288 287 284 279 279 278 279 274 264 254 245 238 238 234 234 232 231 229 226
220 279 280 283 289 289 282 283 279 278 277 279 277 279 284 279 278 275 276 281 291 295 292 292 294 296 301 301 297 293 289 282 280 284 288 293 299 300 300 300 299 294 290 284 283 276 280 277 275 278 282 285 291 297 299 300 297 295 294 292 291 291 291 290 288 284 283 280 276 277 274 273 274 273 270 265 257 242 237 235 233 232 233 233 229
279 281 280 280 283 278 283 279 280 276 274 274 281 282 283 284 289 277 275 282 282 286 288 286 286 291 292 293 295 291 287 281 279 279 287 297 302 300 298 297 296 296 293 283 275 274 277 282 285 289 296 300 300 300 301 298 293 291 289 287 288 285 282 273 275 275 273 273 273 273 271 270 270 272 277 276 269 254 239 233 228 227 228 229 230
280 274 275 277 277 286 292 287 279 273 272 266 263 267 274 283 279 285 278 273 273 278 284 283 279 281 283 285 290 289 283 286 286 284 282 286 289 290 290 291 291 291 290 288 288 287 288 288 291 294 295 292 290 278 265 271 279 287 291 294 297 291 287 284 277 275 271 273 272 271 271 273 271 274 278 282 279 262 242 231 222 223 218 222 225
262 273 276 277 282 282 285 286 287 281 277 277 269 270 268 262 266 274 275 275 272 271 274 279 282 279 285 291 289 288 288 285 285 291 290 289 282 278 282 279 279 281 281 276 278 279 277 278 274 275 278 283 287 289 290 291 292 289 281 273 268 265 265 265 266 265 266 263 265 263 268 269 272 269 266 265 266 266 255 234 222 221 212 215 217
252 265 273 276 282 281 280 282 285 291 284 283 289 287 267 252 257 266 272 267 271 271 272 276 280 286 286 284 278 262 272 285 294 295 292 282 278 280 272 275 278 268 271 268 265 269 270 271 275 275 277 276 276 270 269 272 273 275 270 267 263 260 258 261 264 261 258 259 260 265 268 270 267 267 266 262 264 267 259 241 221 218 210 206 212
258 271 273 280 279 275 274 281 283 285 290 282 268 264 281 277 267 268 253 236 230 237 232 241 259 271 269 276 280 287 302 299 290 303 304 308 309 307 305 299 296 293 292 296 293 270 244 262 258 270 262 267 267 269 271 272 272 272 275 275 273 271 267 259 256 255 256 258 260 262 264 262 265 263 262 256 254 256 256 244 222 213 204 203 212
255 269 267 270 277 282 282 280 280 284 286 294 298 292 270 284 278 271 281 277 276 282 291 292 296 297 295 291 299 303 303 304 308 311 312 312 313 313 311 309 309 311 313 319 326 317 312 305 301 297 296 302 297 293 291 288 285 282 278 277 276 271 265 259 253 257 255 255 258 261 262 264 262 262 259 258 259 257 252 236 223 204 201 202 208
245 257 264 267 269 273 278 283 284 280 282 289 294 302 310 307 298 284 276 276 287 295 299 301 305 308 311 310 309 308 307 310 313 316 317 317 314 313 313 314 316 319 321 321 329 329 322 315 306 301 298 298 294 291 288 286 284 283 284 282 273 272 272 266 261 258 259 260 260 261 265 270 271 272 270 268 268 266 260 234 214 200 201 201 205
236 250 251 262 277 280 274 273 281 285 288 286 291 302 307 314 314 299 275 280 295 299 301 307 313 319 321 320 316 306 313 318 321 321 320 323 326 326 325 322 323 326 326 330 330 326 322 311 304 301 301 295 292 292 292 288 287 284 284 286 286 282 272 270 265 260 260 260 259 259 260 265 271 274 274 271 267 266 257 224 203 196 197 200 204
230 250 250 266 272 275 279 274 278 279 289 297 298 298 303 309 313 319 320 313 303 294 300 312 327 329 328 325 322 321 323 325 324 327 333 336 335 334 331 332 335 338 344 349 341 325 321 313 306 305 305 303 303 304 299 294 294 292 291 288 288 280 273 268 270 265 261 259 259 261 263 261 264 266 268 267 269 268 253 225 205 194 194 198 204
230 233 250 258 267 272 270 269 273 277 275 283 282 290 288 285 293 301 311 321 330 340 131 205 320 331 328 327 327 329 330 330 333 341 344 343 342 343 346 342 340 349 355 344 338 330 328 323 321 322 322 316 313 309 305 305 305 302 297 291 286 285 281 276 272 269 265 264 261 260 263 263 266 269 268 269 272 271 245 219 205 197 197 199 200
231 247 255 259 255 261 265 270 273 275 277 278 280 284 282 283 289 293 300 310 316 312 318 318 320 332 332 328 330 333 334 336 345 350 349 348 350 353 351 345 348 347 352 350 338 332 325 323 321 321 322 317 313 311 309 307 305 300 297 297 297 292 287 284 278 272 266 264 260 255 253 256 259 259 265 272 276 279 273 232 201 192 193 191 193
231 246 244 251 254 255 264 262 265 268 273 275 269 267 276 289 291 284 289 289 289 303 307 309 312 321 328 332 334 338 338 342 351 351 349 351 355 359 352 349 343 341 338 335 333 326 323 317 316 311 310 305 306 304 302 301 301 301 302 303 303 299 295 289 283 274 265 263 261 264 265 263 263 265 266 264 264 264 251 250 235 207 192 189 188
230 233 247 247 246 255 262 259 258 259 270 275 280 289 284 279 279 282 284 277 290 289 292 306 317 319 327 323 328 330 330 339 349 347 346 348 354 358 342 338 329 327 328 329 327 323 318 312 306 300 302 306 305 302 301 303 307 310 310 309 305 306 300 289 279 272 270 266 263 259 262 264 267 268 268 266 262 256 247 219 196 197 201 201 187
223 233 244 247 249 252 251 251 253 269 281 287 278 276 281 275 274 281 283 289 292 299 302 303 307 311 316 318 327 318 321 336 343 346 346 346 347 349 349 339 334 327 323 321 321 317 314 310 307 305 303 302 300 303 305 305 309 311 309 309 310 307 317 313 296 286 277 272 271 267 261 262 265 266 259 257 257 258 251 233 203 191 194 197 189
228 241 252 265 269 252 237 254 266 274 277 273 274 275 277 280 285 279 280 285 289 293 288 293 297 301 304 311 317 312 327 344 346 337 333 332 336 339 337 333 327 324 318 317 315 316 312 310 309 306 303 303 304 305 306 306 308 308 312 314 310 313 323 330 327 322 312 299 291 286 283 278 274 271 265 254 256 256 249 229 216 209 199 195 192
226 229 252 263 260 272 277 271 272 273 270 273 273 266 272 280 278 279 286 290 296 294 292 295 298 294 302 306 299 317 341 338 332 325 325 329 333 335 334 330 330 325 324 320 319 316 314 309 308 308 308 307 307 306 305 307 307 308 311 315 315 319 322 327 331 332 332 329 322 315 306 297 287 278 268 254 252 242 243 235 218 201 199 201 203
219 232 241 251 259 264 278 277 269 260 256 260 264 271 269 273 276 284 284 284 288 289 291 288 287 290 292 306 322 334 354 336 321 318 316 319 320 324 326 324 324 323 320 317 316 314 313 311 311 309 308 305 306 309 310 311 311 312 316 318 322 318 319 324 327 326 324 322 320 318 318 318 310 295 270 258 260 254 242 232 215 202 192 189 185
217 229 236 242 256 259 259 260 257 260 267 269 267 268 268 270 277 281 284 289 291 292 295 294 289 288 300 316 328 339 346 322 310 306 309 311 313 315 315 315 313 312 315 316 318 317 317 316 314 312 310 310 312 314 317 317 318 318 319 322 324 322 321 325 322 315 313 314 319 320 320 322 322 313 303 301 275 240 226 221 211 197 176 157 150
214 224 231 243 240 242 247 252 259 263 262 255 263 263 269 278 277 277 285 286 285 290 294 298 299 299 305 319 330 336 333 308 302 307 305 312 312 314 314 317 316 314 314 312 312 313 313 313 313 314 314 314 313 314 318 322 324 324 324 320 320 328 326 323 324 328 327 324 322 323 329 331 336 336 344 353 3 39 57 56 51 61 78 121 137
215 231 235 239 244 251 252 251 258 254 255 265 272 277 280 275 273 278 278 280 280 280 283 286 290 306 310 320 328 332 319 317 310 311 312 314 314 316 317 315 317 316 316 316 317 317 318 316 316 316 315 316 318 317 314 315 324 329 330 326 325 325 328 329 328 327 327 325 327 333 337 338 345 350 351 352 360 37 65 84 82 85 97 94 96
219 225 232 244 248 244 252 249 247 256 266 272 271 271 272 272 277 275 274 277 281 285 284 283 295 306 313 315 323 320 315 311 310 310 312 314 315 315 316 317 319 319 317 317 318 319 317 319 317 320 323 325 327 327 325 321 321 325 332 331 322 320 331 330 325 319 320 325 329 333 338 345 353 355 356 355 359 4 25 79 107 109 97 91 107
214 218 229 232 241 243 244 245 244 251 257 260 265 271 266 267 268 270 276 275 283 288 290 296 304 305 302 306 307 309 306 306 304 304 305 311 313 313 314 315 315 313 313 313 315 318 317 318 320 321 324 326 330 330 331 331 328 326 331 335 334 331 328 328 326 329 330 333 334 332 339 350 2 2 9 6 12 20 27 31 48 70 96 105 107
213 215 226 229 233 239 241 242 245 249 246 255 262 268 275 273 272 274 278 286 288 290 294 297 303 302 301 301 303 302 303 305 304 307 307 307 309 310 313 315 315 314 315 315 316 317 318 318 319 320 320 321 326 330 334 336 336 334 335 338 340 346 340 338 337 337 335 334 337 344 349 358 5 7 7 14 23 30 41 44 48 65 61 79 87
213 217 226 229 232 238 243 243 245 254 257 259 260 266 272 281 287 283 283 282 285 283 287 289 285 285 293 295 294 294 296 296 297 297 301 303 305 308 311 313 315 315 315 315 318 320 320 321 320 321 321 323 326 331 333 337 340 340 338 342 347 356 352 351 345 347 346 344 345 350 358 6 15 18 19 22 27 27 44 43 50 51 62 66 75
212 217 227 229 230 232 237 237 238 243 245 249 261 273 273 276 274 275 276 279 277 279 277 284 289 289 289 289 293 293 292 295 297 300 301 303 306 308 310 310 312 313 314 315 316 320 320 320 321 319 319 321 325 327 331 334 342 345 343 340 352 358 359 0 358 356 358 357 352 355 1 13 20 26 27 31 32 36 47 45 51 54 57 58 63
217 221 224 229 234 240 237 235 240 244 245 246 250 260 266 267 269 268 270 274 278 275 271 268 274 283 288 295 298 296 297 298 298 300 301 302 305 306 310 311 313 313 314 313 316 316 317 317 318 318 321 323 326 328 329 331 339 347 347 346 354 359 1 4 359 3 9 2 3 2 4 12 17 25 26 31 33 42 45 47 49 55 60 66 66
222 224 225 228 234 239 236 238 245 240 238 243 242 247 257 259 259 265 268 270 269 273 276 275 277 281 280 273 279 286 291 290 289 290 294 298 302 306 308 311 312 313 311 313 314 316 316 319 319 320 321 323 325 328 326 327 340 347 351 355 358 2 5 10 8 4 13 19 9 13 21 21 25 25 26 27 39 44 56 57 55 55 58 60 63